Home   Weather   Faridabad   Past weeks

Flag for India Past Weather in Faridabad, Haryana, India — Yesterday and Last 2 Weeks

Now
81 °F

Passing clouds.


Feels Like: 81 °F
Forecast: 73 / 100 °F
Wind: 6 mph from Northeast

Location: New Delhi Palam Airport

Current Time: May 1, 2017 at 4:11:19 am

Latest Report: May 1, 2017 at 3:30 am


Visibility: 2 mi

Pressure: 29.74 "Hg

Humidity: 42%

Dew Point: 55 °F

Location of FaridabadLocation

Past Weather in Faridabad — Graph

°F

Faridabad Temperature Yesterday

Maximum temperature yesterday: 100 °F (at 2:00 pm)
Minimum temperature yesterday: 75 °F (at 5:00 am)
Average temperature yesterday: 88 °F

High & Low Weather Summary for the Past Weeks

 TemperatureHumidityPressure
High113 °F (Apr 18, 4:00 pm)58% (Apr 18, 6:30 am)29.83 "Hg (Apr 18, 6:30 am)
Low73 °F (Apr 26, 6:30 am)9% (Apr 19, 6:30 pm)29.50 "Hg (Apr 20, 3:30 pm)
Average92 °F28%29.68 "Hg
* Reported Apr 16 2:30 am — May 1 3:00 am, Faridabad, Weather by CustomWeather, © 2017

Note: Actual official high and low records may vary slightly from our data, if they occured in-between our weather recording intervals... More about our weather records

Advertising

Faridabad Weather History for the Previous 24 Hours

Scroll right to see more
 ConditionsComfort  
Time TempWeatherWind HumidityBarometerVisibility
3:00 am
Mon, May 1
84 °FPassing clouds.8 mph37%29.74 "Hg2 mi
2:00 am82 °FPassing clouds.7 mph40%29.77 "Hg2 mi
1:30 am82 °FPassing clouds.8 mph40%29.77 "Hg2 mi
1:00 am84 °FPassing clouds.7 mph37%29.77 "Hg2 mi
12:30 am86 °FPassing clouds.8 mph38%29.77 "Hg2 mi
12:00 am86 °FPassing clouds.7 mph38%29.77 "Hg2 mi
11:30 pm
Sun, Apr 30
86 °FPassing clouds.8 mph38%29.77 "Hg1 mi
11:00 pm86 °FPartly cloudy.8 mph40%29.77 "Hg1 mi
10:30 pm88 °FPartly cloudy.8 mph35%29.77 "Hg1 mi
10:00 pm90 °FThunderstorms. Partly cloudy.6 mph31%29.74 "Hg2 mi
9:30 pm91 °FThunderstorms. Partly cloudy.8 mph28%29.74 "Hg2 mi
9:00 pm90 °FThunderstorms. Partly cloudy.8 mph31%29.74 "Hg2 mi
8:30 pm90 °FThunderstorms. Partly cloudy.6 mph31%29.71 "Hg2 mi
8:00 pm91 °FThunderstorms. Partly cloudy.7 mph30%29.71 "Hg2 mi
7:30 pm91 °FThunderstorms. Partly cloudy.9 mph30%29.68 "Hg2 mi
7:00 pm95 °FBroken clouds.7 mph25%29.68 "Hg2 mi
6:30 pm97 °FScattered clouds.7 mph23%29.68 "Hg2 mi
6:00 pm97 °FHaze.8 mph23%29.68 "Hg2 mi
5:30 pm99 °FHaze.6 mph24%29.68 "Hg2 mi
5:00 pm100 °FHaze.9 mph21%29.68 "Hg2 mi
4:30 pm100 °FHaze.8 mph21%29.68 "Hg2 mi
4:00 pm100 °FHaze.6 mph21%29.71 "Hg2 mi
3:30 pm100 °FHaze.3 mph21%29.71 "Hg2 mi
3:00 pm100 °FHaze.6 mph21%29.74 "Hg2 mi
2:30 pm100 °FHaze.7 mph21%29.74 "Hg2 mi
2:00 pm100 °FHaze.6 mph21%29.74 "Hg2 mi
1:30 pm97 °FHaze.9 mph25%29.77 "Hg2 mi
1:00 pm97 °FHaze.8 mph23%29.77 "Hg2 mi
12:30 pm95 °FHaze.9 mph25%29.77 "Hg2 mi
12:00 pm93 °FHaze.9 mph28%29.80 "Hg2 mi
11:30 am93 °FHaze.9 mph28%29.80 "Hg2 mi
11:00 am91 °FScattered clouds.9 mph30%29.80 "Hg2 mi
10:30 am90 °FScattered clouds.12 mph31%29.80 "Hg2 mi
10:00 am88 °FScattered clouds.12 mph31%29.80 "Hg2 mi
9:30 am84 °FScattered clouds.17 mph37%29.77 "Hg2 mi
9:00 am82 °FScattered clouds.9 mph40%29.77 "Hg2 mi
8:30 am81 °FScattered clouds.9 mph42%29.77 "Hg2 mi
8:00 am79 °FBroken clouds.9 mph45%29.77 "Hg1 mi
7:30 am77 °FBroken clouds.9 mph47%29.77 "Hg1 mi
7:00 am75 °FThunderstorms. Broken clouds.9 mph50%29.77 "Hg1 mi
6:30 am75 °FBroken clouds.9 mph54%29.83 "Hg1 mi
6:00 am75 °FThunderstorms. Partly cloudy.7 mph50%29.83 "Hg1 mi
5:30 am75 °FThunderstorms. Partly cloudy.9 mph57%29.80 "Hg1 mi
5:00 am75 °FThunderstorms. Partly cloudy.16 mph57%29.80 "Hg1 mi
4:30 am79 °FThunderstorms. Partly cloudy.9 mph45%29.74 "Hg2 mi
4:00 am79 °FPartly cloudy.5 mph42%29.71 "Hg2 mi
Weather by CustomWeather, © 2017

See weather overviewHow to use our weather pages